Chaleur - Miscou: Past 24 Hour Conditions

 

Port aux Basques

09:30 AM NDT 29 August 2014
This table is a summary of hourly weather conditions for the past 24 hours.
Date / Time
(NDT)
Wind(knots) Conditions Visibility(km) Pressure(kPa) Air tempC) Relative humidity(%) Dew pointC)
29 August 2014
9:30 NNE 18 gust 25 Cloudy 15 101.0 11 78 7
8:30 NNE 19 gust 26 Cloudy 15 100.9 11 80 7
7:30 NNE 20 gust 26 Light Rain 15 100.8 10 87 8
6:30 NE 14 gust 22 Cloudy 15 100.7 11 80 8
5:30 NE 9 Cloudy 15 100.6 11 85 9
4:30 NE 11 Cloudy 15 100.6 11 85 9
3:30 ENE 15 Mainly Clear 15 100.5 12 86 9
2:30 ENE 15 Light Rain 15 100.4 11 90 10
1:30 ENE 22 gust 27 Light Rain 15 100.5 12 85 10
0:30 ENE 18 Mostly Cloudy 15 100.5 13 81 10
28 August 2014
23:30 ENE 14 Cloudy 15 100.4 14 83 11
22:30 ENE 17 Cloudy 15 100.4 14 84 12
21:30 ENE 15 Light Rain 15 100.5 15 85 12
20:30 E 16 gust 21 Cloudy 15 100.4 16 83 13
19:30 E 15 gust 20 Cloudy 15 100.4 17 81 14
18:30 E 15 Cloudy 15 100.5 17 85 14
17:30 E 17 gust 22 Cloudy 15 100.5 17 85 14
16:30 E 15 gust 21 Cloudy 15 100.5 17 86 15
15:30 E 15 gust 24 Cloudy 15 100.5 17 87 15
14:30 ESE 18 gust 24 Cloudy 15 100.6 17 87 15
13:30 E 19 Cloudy 15 100.6 17 86 15
12:30 E 14 gust 24 Cloudy 15 100.7 18 87 16
11:30 E 15 Cloudy 15 100.7 18 87 16
10:30 E 14 Cloudy 15 100.7 18 88 16
9:30 E 10 Mostly Cloudy 15 100.7 18 93 17
 
Map of Atlantic - Newfoundland marine weather areas Southwestern Grand Banks - 44138 Banquereau - 44139 Tail of the Bank - 44140 Nickerson Bank - 44251 Northeast Burgeo Bank - 44255 Blanc-Sablon Airport Cap Whittle Chevery Natashquan Airport Heath Point Miscou Island Grand Étang Ingonish Beach North Mountain St.Paul Island J.A. Douglas McCurdy Sydney Airport Charlottetown Airport East Point North Cape Argentia Bonavista Burgeo Cape Race Corner Brook Daniel's Harbour Englee Ferolle Point La Scie Port aux Basques Rocky Harbour Sagona Island St. Anthony Airport St. John's Int'l Airport St. Lawrence Stephenville Airport Twillingate Winterland Wreckhouse Cartwright Airport Mary's Harbour Grates Cove Pool's Island Marticot Island Long Pond Îles de la Madeleine Airport
Legend: buoyBuoy land stationLand Station